Saskatoon John G. Diefenbaker International Airport
CYXE : rendu visible

Aérodrome :











RETROUVEZ-NOUS SUR...

 
LOGIN :

S'inscrire | Disclaimer

   EN    FR    IT 

 









Légende :    VFR   VFR Marginal   IFR   IFR Intensif   IFR Très Intensif
Visi : 
Plafond : 
>= 8 km
>= 3000ft
5 à 8 km
1000 à 3000 ft
1500m à 5 km
500 à 1000 ft
800 à 1500m
200 à 500 ft
< 800m
< 200 ft
Symboles :   Orages  Brouillard  Fortes neiges  Fortes précipitations  Vent > 20 kt






- Altitude de l'aérodrome : 1653 ft
- Code IATA : YXE


CYXE - Saskatoon John G. Diefenbaker International

DERNIER METAR :
  • 250600Z 18009KT 15SM SCT090 12/04 A2993 RMK AC3 SLP146 DENSITY ALT 1700FT

METARs EXPIRÉS :
  • 250500Z 17006KT 15SM FEW100 12/04 A2993 RMK AC1 SLP150 DENSITY ALT 1700FT
  • 250400Z 17006KT 15SM FEW100 13/04 A2994 RMK AC2 SLP151 DENSITY ALT 1800FT

TAF TAF CYXE
Valide du 25 à 06h jusqu'au 26 à 06h UTC


250538Z 2506/2606 17006KT P6SM FEW100
FM250900 18010KT P6SM SCT090
BECMG 2516/2518 22012KT
FM252100 22012KT P6SM BKN090 RMK NXT FCST BY 251200Z
FIR CZWG / Amérique du Nord



MET'MAP, la Météo Aéronautique d'un coup d'oeil ! - Copyright ORBIFLY Décembre 2007 - Disclaimer

ORBIFLY MET'MAP TEAM :

Programmation & Développement : Alexandra Zaïnal
Sur une idée originale de : Baudouin d'Aumeries
Assistance à la programmation : Marc-Olivier Méhu
Soutien technique & logistique : Manuel Goepfert

Contact : metmap@orbifly.com




SOURCES & CREDITS :

   NOAA       Earth
Advisory